STARLINK-38277, 100507

Orbit data source: Space-Track

STARLINK-38277, 100507 is a payload satellite owned by SpaceX/Seattle (US) in LEO that was launched on Wed, 26 Aug 2026 UTC launched from the Air Force Western Test Range (AFWTR). Payload-class satellites include a variety of spacecraft equipped with specific instruments for various scientific and technological missions. These include communications satellites like Starlink; space stations such as the ISS; scientific satellites like the Hubble; Earth observation satellites from companies like Planet Labs, Umbra, and HawkEye 360; GPS; miniature CubeSats for education and research; and military/defense satellites.

Loading next visibility...
Identifier
100507, 2026-197F
Orbit
LEO
Country
Flag of USUS
Related business
Manufacturer
SpaceX/Seattle
Mission
Operational spacecraft
Bus & Motor
STARLINK V2MO, Unknown motor
Mass
575 kg wet, ~530 kg dry
Launch date (UTC)
2026-08-26 (2 weeks ago)
Launch vehicle
Unknown
Launch site
Air Force Western Test Range (AFWTR)
Object type
Payload
Rocket body
Debris
Shape & HBR
BOX + PAN, 17.7 m
Radar Cross Section
RCS unknown

Expand to show TLE details & history
Last TLE update: 13 hours ago

TLE from 13 hours ago
0 STARLINK-38277
1 A0507U 26197F   26251.23647446 -.00755190  00000-0 -47449-2 0  9998
2 A0507  69.9989 156.5906 0003900 308.9051  51.1801 15.78433898  2053
Epoch: 2026-09-08T05:40Z
TLE epoch observation values (Epoch: 2026-09-08T05:40:31.393Z)
Latitude
-0°
Longitude
84.15401°
Altitude
335.746 km
Speed
7.708 km/s
True Right ascension
10h 26m 21s
True Declination
0° 00' 00"
Sunlit
Object was in daylight at epoch
Visualization orbit readout
Latitude
Unknown
Longitude
Unknown
Altitude
Unknown
Speed
Unknown
Apparent Right ascension
Unknown
Apparent Declination
Unknown
Sunlit
N/A
Visualization observer readout
Local Sidereal Time
10:47:44
Azimuth
Unknown
Elevation
Unknown
Doppler factor
Unknown
Orbital elements
Apogee altitude
335.37 km
Perigee altitude
330.136 km
Semi-major axis
6,710.89 km
Eccentricity
0.00039
Inclination
69.9989°
RAAN
156.5906°
Arg. of periapsis
308.9051°
True anomaly
51.21493°
Mean anomaly
51.1801°
Eccentric anomaly
51.19751°
Mean motion
3.94796 °/min
Orbital period
91.19 mins
BSTAR
-0.0047449
Loading maneuver chart data...
Computing Atmospheric mass density...
Loading historical data...
Loading historical data...
Loading historical data...
Loading historical data...
Loading historical data...
Loading historical data...
Loading historical data...

Documentation

Showing up to 5 results
|